QPF
0.00 0.00 0.00 0.00 0.00 0.00 0.00 0.00 0.00 0.00 0.00 0.00 0.00 0.00 0.00 0.00 0.00 0.00 0.00 0.00 0.00 0.00 0.00 0.00 0.00 0.00 0.00 0.00 0.00 0.01 0.01 0.01 0.02 0.03 0.04 0.04 0.05 0.06 0.07 0.06 0.06 0.07 0.07 0.06
0.00 0.00 0.00 0.00 0.00 0.00 0.00 0.00 0.00 0.00 0.00 0.00 0.00 0.00 0.00 0.00 0.00 0.00 0.00 0.00 0.00 0.00 0.00 0.00 0.00 0.00 0.01 0.01 0.01 0.01 0.02 0.02 0.03 0.04 0.04 0.05 0.05 0.06 0.07 0.08 0.09 0.09 0.08 0.07
0.00 0.00 0.00 0.00 0.00 0.00 0.00 0.00 0.00 0.00 0.00 0.00 0.00 0.00 0.00 0.00 0.00 0.00 0.00 0.00 0.00 0.00 0.00 0.00 0.00 0.01 0.01 0.01 0.02 0.02 0.03 0.03 0.04 0.04 0.05 0.06 0.05 0.07 0.09 0.10 0.11 0.11 0.09 0.09
0.00 0.00 0.01 0.00 0.00 0.00 0.00 0.00 0.00 0.00 0.00 0.00 0.00 0.00 0.00 0.00 0.00 0.00 0.00 0.00 0.00 0.00 0.00 0.00 0.00 0.01 0.01 0.01 0.02 0.02 0.03 0.03 0.04 0.05 0.05 0.07 0.08 0.09 0.10 0.11 0.10 0.11 0.11 0.11
0.00 0.00 0.00 0.00 0.00 0.00 0.00 0.00 0.00 0.00 0.00 0.00 0.00 0.00 0.00 0.00 0.00 0.00 0.00 0.00 0.00 0.00 0.00 0.01 0.01 0.02 0.02 0.02 0.02 0.03 0.03 0.04 0.04 0.05 0.07 0.07 0.08 0.10 0.10 0.09 0.10 0.11 0.12 0.13
0.00 0.00 0.00 0.00 0.00 0.00 0.00 0.00 0.00 0.00 0.00 0.00 0.00 0.00 0.00 0.00 0.00 0.00 0.00 0.00 0.00 0.00 0.00 0.01 0.02 0.02 0.02 0.03 0.03 0.03 0.03 0.04 0.04 0.07 0.08 0.08 0.09 0.11 0.12 0.11 0.10 0.11 0.12 0.13
0.00 0.00 0.00 0.00 0.00 0.00 0.00 0.00 0.00 0.00 0.00 0.00 0.00 0.00 0.00 0.00 0.00 0.00 0.00 0.00 0.00 0.00 0.01 0.01 0.02 0.03 0.03 0.03 0.04 0.03 0.04 0.05 0.06 0.08 0.09 0.09 0.10 0.11 0.12 0.12 0.12 0.12 0.12 0.13
0.00 0.00 0.00 0.00 0.00 0.00 0.00 0.00 0.00 0.00 0.00 0.00 0.00 0.00 0.00 0.00 0.00 0.00 0.00 0.00 0.00 0.01 0.01 0.01 0.02 0.03 0.03 0.03 0.04 0.04 0.04 0.05 0.06 0.08 0.07 0.06 0.10 0.11 0.12 0.12 0.13 0.13 0.13 0.13
0.00 0.00 0.00 0.00 0.00 0.00 0.00 0.00 0.00 0.00 0.00 0.00 0.00 0.00 0.00 0.00 0.00 0.00 0.00 0.00 0.00 0.01 0.01 0.01 0.02 0.03 0.03 0.04 0.04 0.04 0.05 0.06 0.07 0.07 0.08 0.09 0.10 0.12 0.13 0.14 0.14 0.14 0.13 0.13
0.00 0.00 0.00 0.00 0.00 0.00 0.00 0.00 0.00 0.00 0.00 0.00 0.00 0.00 0.00 0.00 0.00 0.00 0.00 0.00 0.01 0.01 0.01 0.02 0.02 0.02 0.03 0.04 0.04 0.05 0.06 0.07 0.07 0.08 0.08 0.09 0.12 0.13 0.13 0.13 0.13 0.14 0.13 0.14
0.00 0.00 0.00 0.00 0.00 0.00 0.00 0.00 0.00 0.00 0.00 0.00 0.00 0.00 0.00 0.00 0.00 0.00 0.01 0.01 0.01 0.01 0.02 0.01 0.01 0.02 0.03 0.04 0.04 0.05 0.06 0.07 0.07 0.08 0.09 0.10 0.11 0.09 0.07 0.07 0.05 0.06 0.08 0.12
0.00 0.00 0.00 0.00 0.00 0.00 0.00 0.00 0.00 0.00 0.00 0.00 0.00 0.00 0.00 0.00 0.00 0.00 0.01 0.01 0.01 0.01 0.01 0.01 0.01 0.02 0.03 0.04 0.04 0.06 0.07 0.07 0.07 0.08 0.09 0.11 0.12 0.10 0.05 0.02 0.01 0.01 0.01 0.02
0.00 0.00 0.00 0.00 0.00 0.00 0.00 0.00 0.00 0.00 0.00 0.00 0.00 0.00 0.00 0.00 0.00 0.00 0.01 0.01 0.01 0.01 0.01 0.02 0.02 0.02 0.03 0.03 0.04 0.06 0.07 0.07 0.07 0.08 0.09 0.10 0.11 0.12 0.11 0.07 0.03 0.02 0.01 0.01
0.00 0.00 0.00 0.00 0.00 0.00 0.00 0.00 0.00 0.00 0.00 0.00 0.00 0.00 0.00 0.00 0.00 0.00 0.00 0.00 0.01 0.01 0.01 0.01 0.01 0.02 0.03 0.03 0.04 0.05 0.06 0.05 0.06 0.08 0.09 0.09 0.09 0.10 0.11 0.12 0.10 0.07 0.03 0.01
0.00 0.00 0.00 0.00 0.00 0.00 0.00 0.00 0.00 0.00 0.00 0.00 0.00 0.00 0.00 0.00 0.00 0.00 0.00 0.00 0.01 0.01 0.01 0.01 0.01 0.02 0.03 0.04 0.04 0.04 0.04 0.04 0.05 0.07 0.08 0.07 0.06 0.06 0.07 0.09 0.10 0.10 0.07 0.03
0.00 0.00 0.00 0.00 0.00 0.00 0.00 0.00 0.00 0.00 0.00 0.00 0.00 0.00 0.00 0.00 0.00 0.00 0.00 0.00 0.01 0.01 0.01 0.01 0.01 0.02 0.02 0.03 0.03 0.04 0.05 0.02 0.02 0.05 0.06 0.06 0.06 0.06 0.07 0.08 0.09 0.09 0.09 0.06
0.00 0.00 0.00 0.00 0.00 0.00 0.00 0.00 0.00 0.00 0.00 0.00 0.00 0.00 0.00 0.00 0.00 0.00 0.00 0.00 0.01 0.01 0.01 0.01 0.01 0.01 0.02 0.03 0.03 0.03 0.04 0.03 0.03 0.04 0.05 0.05 0.06 0.07 0.08 0.08 0.07 0.06 0.05 0.03
0.00 0.00 0.00 0.00 0.00 0.00 0.00 0.00 0.00 0.00 0.00 0.00 0.00 0.00 0.00 0.00 0.00 0.00 0.00 0.00 0.00 0.01 0.01 0.01 0.00 0.01 0.02 0.02 0.02 0.03 0.04 0.04 0.04 0.05 0.04 0.04 0.05 0.07 0.08 0.09 0.07 0.05 0.04 0.03
0.00 0.00 0.00 0.00 0.00 0.00 0.00 0.00 0.00 0.00 0.00 0.00 0.00 0.00 0.00 0.00 0.00 0.00 0.00 0.00 0.00 0.00 0.00 0.00 0.00 0.01 0.02 0.01 0.01 0.03 0.03 0.03 0.03 0.04 0.03 0.03 0.05 0.06 0.07 0.07 0.06 0.06 0.05 0.05
0.00 0.00 0.00 0.00 0.00 0.00 0.00 0.00 0.00 0.00 0.00 0.00 0.00 0.00 0.00 0.00 0.00 0.00 0.00 0.01 0.00 0.00 0.00 0.00 0.00 0.00 0.00 0.00 0.01 0.01 0.01 0.01 0.02 0.02 0.03 0.03 0.04 0.05 0.06 0.05 0.05 0.06 0.07 0.06
0.00 0.00 0.00 0.00 0.00 0.00 0.00 0.00 0.00 0.00 0.00 0.00 0.00 0.00 0.00 0.00 0.00 0.00 0.00 0.00 0.00 0.00 0.00 0.00 0.00 0.00 0.00 0.00 0.00 0.01 0.02 0.02 0.02 0.01 0.02 0.02 0.03 0.04 0.05 0.06 0.07 0.06 0.05 0.05
0.00 0.00 0.00 0.00 0.00 0.00 0.00 0.00 0.00 0.00 0.00 0.00 0.00 0.00 0.00 0.00 0.00 0.00 0.00 0.00 0.00 0.00 0.00 0.00 0.00 0.00 0.00 0.00 0.01 0.01 0.01 0.01 0.02 0.01 0.01 0.02 0.03 0.03 0.04 0.04 0.05 0.05 0.04 0.04
0.00 0.00 0.00 0.00 0.00 0.00 0.00 0.00 0.00 0.00 0.00 0.00 0.00 0.00 0.00 0.00 0.00 0.00 0.00 0.00 0.00 0.00 0.00 0.00 0.00 0.00 0.00 0.00 0.01 0.01 0.01 0.01 0.01 0.02 0.02 0.02 0.03 0.03 0.03 0.03 0.03 0.04 0.04 0.03
0.00 0.00 0.00 0.00 0.00 0.00 0.00 0.00 0.00 0.00 0.00 0.00 0.00 0.00 0.00 0.00 0.00 0.00 0.00 0.00 0.00 0.00 0.00 0.00 0.00 0.00 0.00 0.00 0.00 0.01 0.00 0.00 0.00 0.01 0.01 0.02 0.02 0.02 0.02 0.02 0.02 0.02 0.02 0.02
0.00 0.00 0.00 0.00 0.00 0.00 0.00 0.00 0.00 0.00 0.00 0.00 0.00 0.00 0.00 0.00 0.00 0.00 0.00 0.00 0.00 0.00 0.00 0.00 0.00 0.00 0.00 0.00 0.00 0.00 0.00 0.00 0.00 0.00 0.00 0.01 0.01 0.02 0.03 0.03 0.02 0.02 0.01 0.02
0.00 0.00 0.00 0.00 0.00 0.00 0.00 0.00 0.00 0.00 0.00 0.00 0.00 0.00 0.00 0.00 0.00 0.00 0.00 0.00 0.00 0.00 0.00 0.00 0.00 0.00 0.00 0.00 0.00 0.00 0.00 0.00 0.00 0.00 0.01 0.01 0.01 0.01 0.02 0.03 0.03 0.02 0.02 0.02
0.00 0.00 0.00 0.00 0.00 0.00 0.00 0.00 0.00 0.00 0.00 0.00 0.00 0.00 0.00 0.00 0.00 0.00 0.00 0.00 0.00 0.00 0.00 0.00 0.00 0.00 0.00 0.00 0.00 0.00 0.00 0.00 0.00 0.01 0.01 0.01 0.01 0.01 0.01 0.02 0.03 0.03 0.02 0.02
MSLP
1010.38 1010.56 1010.71 1010.86 1011.04 1011.23 1011.43 1011.60 1011.72 1011.78 1011.76 1011.69 1011.58 1011.48 1011.41 1011.41 1011.48 1011.60 1011.76 1011.90 1011.98 1011.98 1011.87 1011.66 1011.37 1011.03 1010.69 1010.38 1010.12 1009.92 1009.77 1009.62 1009.45 1009.22 1008.90 1008.47 1007.95 1007.37 1006.76 1006.17 1005.63 1005.19 1004.85 1004.64
1010.77 1011.02 1011.22 1011.39 1011.54 1011.68 1011.81 1011.91 1011.99 1012.04 1012.04 1012.01 1011.96 1011.92 1011.90 1011.90 1011.94 1011.99 1012.05 1012.07 1012.04 1011.94 1011.76 1011.51 1011.22 1010.92 1010.62 1010.35 1010.12 1009.93 1009.75 1009.55 1009.30 1008.98 1008.56 1008.05 1007.46 1006.83 1006.19 1005.58 1005.04 1004.59 1004.26 1004.03
1011.12 1011.40 1011.63 1011.79 1011.92 1012.02 1012.11 1012.19 1012.24 1012.28 1012.30 1012.31 1012.30 1012.29 1012.28 1012.27 1012.25 1012.23 1012.18 1012.10 1011.97 1011.79 1011.57 1011.32 1011.06 1010.80 1010.56 1010.34 1010.14 1009.93 1009.71 1009.43 1009.09 1008.66 1008.13 1007.53 1006.88 1006.20 1005.55 1004.95 1004.43 1004.01 1003.70 1003.50
1011.36 1011.64 1011.85 1012.00 1012.11 1012.19 1012.25 1012.31 1012.36 1012.41 1012.45 1012.48 1012.50 1012.50 1012.49 1012.45 1012.38 1012.29 1012.16 1012.00 1011.80 1011.58 1011.35 1011.12 1010.90 1010.70 1010.51 1010.32 1010.13 1009.90 1009.61 1009.25 1008.80 1008.26 1007.63 1006.94 1006.23 1005.54 1004.89 1004.32 1003.85 1003.49 1003.24 1003.10
1011.43 1011.67 1011.85 1011.98 1012.07 1012.13 1012.19 1012.24 1012.29 1012.35 1012.42 1012.47 1012.51 1012.53 1012.51 1012.45 1012.35 1012.21 1012.04 1011.83 1011.60 1011.37 1011.15 1010.95 1010.77 1010.61 1010.45 1010.28 1010.07 1009.80 1009.45 1009.00 1008.44 1007.80 1007.09 1006.34 1005.60 1004.90 1004.29 1003.78 1003.38 1003.10 1002.93 1002.86
1011.31 1011.50 1011.64 1011.75 1011.82 1011.88 1011.94 1011.99 1012.06 1012.14 1012.23 1012.31 1012.37 1012.40 1012.39 1012.33 1012.22 1012.07 1011.87 1011.66 1011.43 1011.21 1011.00 1010.82 1010.67 1010.53 1010.38 1010.20 1009.96 1009.63 1009.20 1008.67 1008.03 1007.32 1006.55 1005.78 1005.04 1004.38 1003.83 1003.39 1003.08 1002.90 1002.81 1002.81
1011.02 1011.16 1011.27 1011.36 1011.44 1011.51 1011.58 1011.65 1011.74 1011.84 1011.95 1012.05 1012.14 1012.19 1012.20 1012.15 1012.06 1011.92 1011.74 1011.53 1011.32 1011.11 1010.92 1010.76 1010.60 1010.45 1010.28 1010.06 1009.77 1009.39 1008.89 1008.29 1007.61 1006.86 1006.08 1005.32 1004.63 1004.03 1003.56 1003.22 1003.00 1002.90 1002.89 1002.95
1010.59 1010.70 1010.81 1010.91 1011.01 1011.10 1011.20 1011.30 1011.42 1011.54 1011.67 1011.79 1011.90 1011.97 1012.00 1011.99 1011.93 1011.81 1011.66 1011.48 1011.29 1011.10 1010.91 1010.74 1010.57 1010.38 1010.16 1009.89 1009.53 1009.08 1008.54 1007.90 1007.19 1006.45 1005.71 1005.01 1004.39 1003.88 1003.51 1003.26 1003.14 1003.11 1003.16 1003.26
1010.09 1010.20 1010.33 1010.46 1010.60 1010.74 1010.88 1011.02 1011.16 1011.31 1011.45 1011.59 1011.71 1011.80 1011.86 1011.87 1011.84 1011.77 1011.65 1011.51 1011.33 1011.15 1010.96 1010.76 1010.54 1010.30 1010.01 1009.66 1009.24 1008.74 1008.16 1007.51 1006.82 1006.12 1005.45 1004.84 1004.32 1003.92 1003.64 1003.49 1003.44 1003.48 1003.57 1003.69
1009.56 1009.70 1009.87 1010.06 1010.26 1010.46 1010.65 1010.83 1011.00 1011.16 1011.32 1011.46 1011.58 1011.69 1011.77 1011.81 1011.81 1011.77 1011.70 1011.58 1011.43 1011.24 1011.03 1010.79 1010.51 1010.20 1009.84 1009.41 1008.93 1008.38 1007.79 1007.15 1006.50 1005.87 1005.29 1004.79 1004.38 1004.09 1003.92 1003.84 1003.86 1003.94 1004.05 1004.16
1009.02 1009.21 1009.45 1009.72 1009.99 1010.25 1010.50 1010.72 1010.92 1011.09 1011.24 1011.38 1011.50 1011.61 1011.70 1011.76 1011.80 1011.80 1011.75 1011.66 1011.52 1011.34 1011.10 1010.81 1010.48 1010.09 1009.65 1009.15 1008.61 1008.04 1007.43 1006.83 1006.24 1005.69 1005.21 1004.82 1004.53 1004.34 1004.24 1004.24 1004.29 1004.39 1004.50 1004.61
1008.46 1008.72 1009.03 1009.37 1009.72 1010.05 1010.35 1010.62 1010.84 1011.02 1011.17 1011.30 1011.42 1011.53 1011.62 1011.70 1011.76 1011.80 1011.78 1011.72 1011.59 1011.41 1011.15 1010.82 1010.43 1009.97 1009.46 1008.91 1008.32 1007.72 1007.13 1006.55 1006.03 1005.56 1005.18 1004.89 1004.69 1004.58 1004.55 1004.59 1004.66 1004.76 1004.85 1004.93
1007.85 1008.17 1008.55 1008.97 1009.40 1009.79 1010.15 1010.45 1010.70 1010.89 1011.05 1011.17 1011.29 1011.39 1011.50 1011.60 1011.69 1011.75 1011.77 1011.73 1011.63 1011.44 1011.17 1010.81 1010.38 1009.87 1009.30 1008.70 1008.08 1007.47 1006.88 1006.34 1005.87 1005.47 1005.17 1004.96 1004.83 1004.78 1004.79 1004.84 1004.91 1004.99 1005.06 1005.11
1007.19 1007.55 1007.99 1008.48 1008.97 1009.43 1009.84 1010.18 1010.45 1010.67 1010.83 1010.97 1011.09 1011.20 1011.32 1011.44 1011.56 1011.65 1011.71 1011.70 1011.62 1011.45 1011.17 1010.80 1010.34 1009.79 1009.19 1008.56 1007.91 1007.29 1006.71 1006.20 1005.77 1005.42 1005.17 1005.01 1004.93 1004.91 1004.93 1004.98 1005.04 1005.08 1005.11 1005.11
1006.47 1006.87 1007.36 1007.89 1008.43 1008.95 1009.41 1009.79 1010.11 1010.35 1010.55 1010.70 1010.84 1010.98 1011.12 1011.27 1011.41 1011.54 1011.63 1011.65 1011.60 1011.44 1011.17 1010.80 1010.32 1009.76 1009.14 1008.49 1007.83 1007.21 1006.64 1006.14 1005.73 1005.42 1005.21 1005.07 1005.01 1004.99 1005.01 1005.03 1005.04 1005.04 1005.01 1004.96
1005.76 1006.18 1006.69 1007.26 1007.84 1008.40 1008.91 1009.34 1009.71 1010.00 1010.23 1010.42 1010.60 1010.76 1010.93 1011.11 1011.28 1011.44 1011.55 1011.60 1011.57 1011.43 1011.17 1010.81 1010.33 1009.77 1009.15 1008.49 1007.83 1007.21 1006.65 1006.17 1005.78 1005.48 1005.28 1005.15 1005.08 1005.05 1005.04 1005.02 1004.98 1004.92 1004.83 1004.72
1005.14 1005.56 1006.08 1006.66 1007.27 1007.86 1008.42 1008.90 1009.32 1009.66 1009.95 1010.19 1010.40 1010.61 1010.81 1011.01 1011.20 1011.37 1011.50 1011.56 1011.54 1011.41 1011.17 1010.81 1010.35 1009.80 1009.19 1008.54 1007.90 1007.29 1006.74 1006.27 1005.89 1005.60 1005.39 1005.26 1005.17 1005.11 1005.06 1004.99 1004.90 1004.77 1004.61 1004.43
1004.70 1005.10 1005.61 1006.19 1006.81 1007.43 1008.01 1008.54 1009.01 1009.41 1009.75 1010.04 1010.30 1010.53 1010.76 1010.97 1011.17 1011.34 1011.46 1011.52 1011.50 1011.37 1011.14 1010.80 1010.35 1009.82 1009.23 1008.61 1007.99 1007.40 1006.87 1006.42 1006.04 1005.75 1005.54 1005.39 1005.28 1005.19 1005.09 1004.97 1004.82 1004.63 1004.41 1004.16
1004.51 1004.88 1005.35 1005.91 1006.52 1007.14 1007.74 1008.31 1008.81 1009.26 1009.64 1009.98 1010.27 1010.52 1010.75 1010.97 1011.15 1011.30 1011.41 1011.45 1011.41 1011.28 1011.05 1010.72 1010.29 1009.79 1009.24 1008.66 1008.07 1007.52 1007.02 1006.58 1006.22 1005.93 1005.71 1005.54 1005.40 1005.27 1005.13 1004.97 1004.77 1004.53 1004.25 1003.94
1004.57 1004.88 1005.31 1005.82 1006.39 1006.99 1007.59 1008.16 1008.69 1009.17 1009.58 1009.94 1010.25 1010.51 1010.74 1010.93 1011.09 1011.21 1011.28 1011.29 1011.23 1011.09 1010.87 1010.55 1010.16 1009.70 1009.19 1008.66 1008.12 1007.61 1007.14 1006.73 1006.38 1006.09 1005.86 1005.68 1005.51 1005.35 1005.18 1004.98 1004.75 1004.47 1004.16 1003.82
1004.81 1005.05 1005.41 1005.85 1006.36 1006.91 1007.48 1008.04 1008.56 1009.04 1009.47 1009.84 1010.15 1010.41 1010.62 1010.79 1010.92 1011.01 1011.04 1011.03 1010.95 1010.80 1010.58 1010.30 1009.94 1009.54 1009.09 1008.61 1008.13 1007.67 1007.24 1006.86 1006.52 1006.24 1006.00 1005.80 1005.61 1005.43 1005.23 1005.01 1004.75 1004.46 1004.14 1003.80
1005.13 1005.28 1005.54 1005.89 1006.32 1006.80 1007.31 1007.82 1008.32 1008.79 1009.20 1009.57 1009.87 1010.13 1010.32 1010.47 1010.58 1010.64 1010.66 1010.63 1010.55 1010.41 1010.22 1009.98 1009.68 1009.34 1008.95 1008.55 1008.14 1007.73 1007.34 1006.99 1006.66 1006.38 1006.13 1005.91 1005.71 1005.50 1005.29 1005.06 1004.81 1004.53 1004.22 1003.91
1005.41 1005.45 1005.60 1005.83 1006.15 1006.54 1006.97 1007.42 1007.87 1008.31 1008.71 1009.06 1009.36 1009.61 1009.80 1009.95 1010.05 1010.11 1010.13 1010.11 1010.06 1009.96 1009.82 1009.64 1009.42 1009.15 1008.85 1008.52 1008.18 1007.83 1007.49 1007.16 1006.85 1006.57 1006.31 1006.07 1005.85 1005.63 1005.42 1005.19 1004.95 1004.70 1004.43 1004.17
1005.53 1005.47 1005.49 1005.60 1005.80 1006.08 1006.41 1006.79 1007.18 1007.57 1007.95 1008.29 1008.59 1008.85 1009.06 1009.23 1009.35 1009.45 1009.51 1009.54 1009.54 1009.51 1009.45 1009.35 1009.22 1009.04 1008.84 1008.60 1008.33 1008.04 1007.74 1007.44 1007.15 1006.86 1006.60 1006.34 1006.11 1005.88 1005.66 1005.45 1005.24 1005.03 1004.82 1004.61
1005.47 1005.29 1005.19 1005.17 1005.25 1005.41 1005.65 1005.94 1006.27 1006.62 1006.98 1007.32 1007.63 1007.92 1008.17 1008.38 1008.57 1008.72 1008.86 1008.97 1009.05 1009.12 1009.16 1009.17 1009.14 1009.07 1008.96 1008.81 1008.62 1008.40 1008.15 1007.88 1007.60 1007.32 1007.05 1006.79 1006.55 1006.32 1006.11 1005.91 1005.73 1005.56 1005.41 1005.27
1005.24 1004.95 1004.73 1004.60 1004.56 1004.61 1004.75 1004.97 1005.24 1005.56 1005.90 1006.25 1006.59 1006.92 1007.23 1007.51 1007.78 1008.03 1008.26 1008.47 1008.67 1008.84 1009.00 1009.12 1009.20 1009.25 1009.24 1009.19 1009.08 1008.93 1008.73 1008.50 1008.25 1007.99 1007.73 1007.47 1007.22 1007.00 1006.80 1006.62 1006.47 1006.34 1006.24 1006.16
1004.92 1004.54 1004.22 1003.98 1003.84 1003.80 1003.86 1004.01 1004.24 1004.52 1004.86 1005.22 1005.60 1005.98 1006.36 1006.73 1007.09 1007.44 1007.78 1008.11 1008.42 1008.71 1008.98 1009.21 1009.41 1009.56 1009.66 1009.70 1009.68 1009.60 1009.47 1009.29 1009.09 1008.85 1008.61 1008.37 1008.14 1007.93 1007.74 1007.59 1007.46 1007.36 1007.29 1007.25
Thickness
5771 5775 5774 5764 5757 5753 5743 5735 5724 5721 5719 5713 5710 5705 5700 5694 5687 5678 5669 5662 5654 5647 5641 5635 5629 5624 5619 5613 5608 5602 5596 5591 5586 5582 5578 5574 5571 5569 5568 5566 5565 5565 5565 5566
5764 5772 5771 5760 5757 5751 5743 5737 5729 5724 5717 5717 5712 5705 5696 5688 5680 5669 5661 5654 5647 5641 5634 5628 5622 5616 5610 5604 5598 5593 5587 5582 5577 5573 5569 5565 5562 5560 5558 5556 5554 5553 5552 5553
5751 5763 5761 5746 5751 5746 5738 5736 5727 5713 5710 5712 5703 5695 5688 5682 5672 5661 5654 5648 5641 5634 5627 5621 5616 5609 5602 5596 5591 5585 5579 5574 5569 5564 5560 5557 5554 5552 5549 5546 5544 5542 5542 5542
5755 5752 5729 5744 5765 5754 5739 5735 5732 5721 5713 5707 5699 5693 5687 5677 5665 5656 5649 5642 5635 5629 5622 5617 5611 5603 5596 5590 5585 5579 5573 5567 5562 5557 5553 5549 5546 5544 5541 5537 5535 5534 5534 5535
5746 5743 5743 5745 5753 5747 5733 5725 5726 5716 5709 5705 5700 5692 5683 5673 5664 5654 5646 5638 5631 5625 5618 5612 5605 5598 5591 5585 5579 5573 5567 5561 5557 5552 5547 5543 5541 5538 5535 5533 5531 5529 5529 5530
5746 5733 5728 5737 5754 5757 5740 5716 5718 5714 5705 5698 5692 5675 5672 5670 5662 5652 5643 5636 5628 5621 5614 5607 5600 5593 5586 5580 5574 5568 5562 5557 5552 5547 5543 5539 5536 5533 5531 5529 5527 5527 5527 5527
5742 5736 5741 5749 5756 5751 5717 5703 5716 5712 5703 5695 5682 5673 5671 5667 5658 5649 5640 5633 5625 5617 5610 5602 5596 5589 5582 5576 5570 5564 5559 5554 5549 5545 5541 5538 5535 5531 5529 5527 5526 5526 5525 5526
5743 5731 5726 5751 5747 5727 5716 5721 5717 5710 5702 5692 5684 5679 5672 5663 5654 5645 5637 5629 5622 5614 5606 5599 5593 5586 5579 5573 5567 5562 5557 5552 5548 5544 5541 5539 5534 5531 5529 5527 5526 5526 5525 5525
5743 5739 5746 5751 5742 5737 5732 5721 5715 5708 5701 5693 5684 5676 5668 5660 5651 5642 5634 5626 5618 5611 5604 5597 5591 5584 5577 5572 5566 5561 5556 5552 5548 5544 5541 5538 5535 5532 5530 5528 5526 5525 5524 5524
5747 5751 5753 5751 5746 5739 5732 5721 5715 5709 5701 5692 5682 5674 5666 5657 5648 5639 5632 5624 5616 5608 5601 5595 5589 5583 5576 5572 5566 5560 5556 5552 5549 5545 5542 5539 5536 5533 5530 5528 5526 5525 5524 5523
5745 5749 5749 5747 5742 5736 5729 5722 5714 5707 5700 5691 5681 5672 5664 5655 5646 5637 5629 5622 5614 5606 5599 5593 5588 5582 5577 5572 5566 5561 5557 5554 5551 5547 5544 5541 5537 5532 5530 5525 5522 5521 5522 5522
5743 5748 5743 5739 5741 5735 5725 5717 5711 5703 5696 5690 5681 5671 5662 5653 5644 5636 5628 5620 5612 5605 5598 5593 5587 5582 5577 5572 5566 5561 5558 5555 5552 5549 5547 5544 5541 5537 5529 5526 5521 5519 5517 5517
5758 5756 5749 5743 5738 5732 5723 5717 5711 5703 5695 5687 5679 5670 5661 5651 5643 5635 5626 5619 5611 5604 5598 5593 5587 5582 5578 5573 5568 5564 5560 5557 5554 5552 5550 5547 5544 5541 5537 5531 5525 5522 5520 5518
5761 5752 5741 5738 5733 5729 5723 5717 5711 5703 5696 5688 5678 5669 5659 5649 5641 5633 5625 5618 5611 5604 5598 5593 5587 5583 5578 5574 5570 5566 5564 5561 5557 5555 5552 5550 5548 5545 5543 5539 5536 5532 5525 5521
5755 5749 5742 5738 5733 5726 5720 5714 5705 5699 5692 5684 5676 5666 5656 5647 5639 5632 5625 5618 5611 5605 5598 5593 5587 5583 5579 5575 5572 5569 5566 5564 5560 5558 5556 5554 5552 5550 5547 5544 5541 5539 5535 5529
5752 5747 5742 5734 5727 5721 5716 5709 5701 5694 5689 5681 5672 5663 5654 5646 5638 5631 5624 5617 5610 5604 5598 5592 5587 5583 5580 5577 5574 5572 5569 5565 5563 5561 5559 5557 5555 5552 5550 5548 5545 5543 5541 5538
5743 5736 5732 5727 5723 5718 5713 5707 5700 5693 5686 5678 5669 5661 5653 5645 5636 5629 5622 5616 5610 5604 5598 5593 5587 5583 5581 5579 5575 5573 5571 5569 5566 5565 5562 5560 5557 5555 5552 5551 5549 5547 5545 5541
5747 5741 5736 5728 5722 5716 5710 5705 5698 5691 5682 5675 5667 5659 5650 5642 5634 5627 5621 5615 5610 5605 5598 5593 5587 5583 5583 5580 5576 5574 5573 5572 5569 5567 5565 5562 5559 5557 5555 5554 5552 5550 5548 5547
5744 5738 5733 5727 5722 5714 5707 5701 5694 5687 5680 5672 5663 5654 5647 5640 5633 5626 5621 5615 5609 5603 5596 5592 5586 5585 5584 5581 5575 5577 5576 5574 5571 5569 5567 5563 5562 5561 5559 5557 5555 5554 5553 5551
5736 5733 5728 5722 5716 5710 5703 5697 5690 5682 5676 5668 5660 5652 5644 5638 5632 5625 5619 5614 5608 5601 5595 5591 5588 5586 5583 5580 5575 5578 5577 5575 5573 5571 5569 5566 5564 5562 5561 5559 5557 5556 5556 5554
5726 5723 5718 5714 5709 5704 5698 5692 5684 5677 5671 5664 5656 5649 5642 5636 5630 5624 5618 5613 5607 5598 5594 5591 5588 5583 5581 5575 5575 5579 5578 5575 5573 5572 5569 5567 5566 5564 5562 5560 5559 5558 5558 5557
5717 5714 5710 5706 5702 5696 5692 5686 5679 5673 5667 5660 5654 5648 5640 5634 5629 5624 5619 5612 5606 5594 5593 5594 5588 5580 5576 5574 5580 5581 5579 5576 5574 5572 5570 5568 5567 5566 5564 5562 5560 5560 5559 5559
5707 5704 5701 5698 5694 5690 5686 5680 5675 5669 5663 5657 5651 5644 5638 5631 5626 5621 5617 5611 5605 5594 5591 5590 5582 5578 5574 5578 5581 5581 5578 5575 5573 5572 5570 5568 5567 5566 5565 5563 5562 5561 5561 5561
5695 5694 5691 5690 5687 5682 5676 5674 5670 5665 5659 5654 5649 5643 5634 5628 5624 5622 5616 5605 5598 5592 5592 5586 5580 5578 5576 5580 5580 5578 5575 5573 5571 5570 5569 5568 5567 5566 5564 5563 5563 5563 5562 5562
5683 5682 5681 5679 5675 5673 5671 5667 5663 5659 5655 5651 5647 5642 5635 5628 5622 5618 5613 5606 5597 5592 5591 5586 5580 5577 5578 5579 5578 5575 5572 5569 5567 5566 5566 5565 5564 5563 5562 5562 5562 5562 5562 5562
5671 5671 5672 5670 5669 5667 5666 5663 5660 5656 5653 5648 5644 5640 5634 5627 5620 5614 5608 5604 5599 5591 5589 5587 5583 5578 5578 5576 5573 5571 5569 5567 5565 5564 5562 5561 5560 5559 5558 5558 5559 5559 5559 5559
5661 5661 5661 5661 5661 5660 5659 5657 5655 5653 5651 5646 5640 5636 5630 5624 5617 5611 5606 5601 5596 5592 5588 5585 5581 5578 5575 5571 5568 5565 5564 5562 5560 5559 5557 5556 5555 5554 5554 5555 5555 5555 5556 5555